Regional Weather Roundup
Issued by NWS Sioux Falls, SD

Home | Current Version | Previous Version | Text Only | Print | Product List | Glossary Off
Versions: 1 2 3 4 5 6 7 8 9 10 11 12 13 14 15 16 17 18 19 20 21 22 23 24 25 26 27 28 29 30 31 32 33 34 35 36 37 38 39 40 41 42 43 44 45 46 47 48 49 50

899
ASUS43 KFSD 220202
RWRFSD

WEATHER ROUNDUP FOR SE SOUTH DAKOTA/SW MINNESOTA/NW IOWA
NATIONAL WEATHER SERVICE SIOUX FALLS SD
900 PM CDT MON AUG 21 2017

NOTE: "FAIR" INDICATES FEW OR NO CLOUDS BELOW 12,000 FEET WITH NO
SIGNIFICANT WEATHER AND OR OBSTRUCTIONS TO VISIBILITY.


SDZ038>040-050-052>070-220300-
SOUTHEAST SOUTH DAKOTA

CITY           SKY/WX    TMP DP  RH WIND       PRES   REMARKS
BROOKINGS      CLEAR     66  62  87 W3        29.99R
CHAMBERLAIN    CLEAR     73  59  59 NW9       30.03R
HURON          CLEAR     65  60  84 NW7       29.99R
MADISON        FAIR      66  66 100 NW5       30.00R
MITCHELL       CLEAR     70  65  84 CALM      30.00R
SIOUX FALLS    CLOUDY    68  66  93 W5        29.98S
WINNER         FAIR      68  62  81 N5        30.06R
$$

MNZ071-072-080-081-089-090-097-098-220300-
SOUTHWEST MINNESOTA

CITY           SKY/WX    TMP DP  RH WIND       PRES   REMARKS
FAIRMONT       CLOUDY    66  63  90 W12       29.94R
JACKSON        CLOUDY    64  61  88 W8        29.96F
LUVERNE        CLOUDY    64  61  88 CALM      29.98F
MARSHALL       CLOUDY    67  63  87 SW8       29.95R
MONTEVIDEO     CLEAR     64  64 100 CALM      29.93R
PIPESTONE      MOCLDY    66  64  94 W5        29.99S
REDWOOD FALLS  CLOUDY    69  63  81 W10       29.92R
TRACY          CLOUDY    68  66  93 SW8       29.96S
WINDOM         CLOUDY    66  63  88 W9        29.96S
WORTHINGTON    CLOUDY    65  63  93 W9        29.97F
$$

IAZ001>003-012>014-020>022-031-032-NEZ013-014-SDZ071-220300-
NORTHWEST IOWA

CITY           SKY/WX    TMP DP  RH WIND       PRES   REMARKS
CHEROKEE       CLOUDY    64  64 100 S5        29.96S
DENISON        RAIN      64  63  94 S12       30.01F
ESTHERVILLE    CLOUDY    64  64 100 W7        29.95S
ORANGE CITY    CLOUDY    64  64 100 CALM      29.98F
SHELDON        CLOUDY    64  63  94 W5        29.95F
SIOUX CITY     CLOUDY    66  66 100 S3        29.99R
SPENCER        CLOUDY    64  63  96 W5        29.96F
STORM LAKE     CLOUDY    64  63  94 SW7       29.98S
$$

ABBREVIATIONS USED IN REMARKS
   TC - TEMPERATURE IN CELSIUS
  WCI - WIND CHILL INDEX
   HX - HEAT INDEX
  VSB - VISIBILITY





USA.gov is the U.S. government's official web portal to all federal, state and local government web resources and services.